Content
SEND FEEDBACK

Daily
Averages
Monthly
Summary
United States of America

HAZELWOOD, MISSOURI


Home > North America > United States > Missouri
Elevation: 570 feet     Latitude: 38 45N     Longitude: 090 22W

WEATHER
 
SELECT A DAY
Number of Records: 196,446;   Date Range: 1/1/95 - 8/12/14
 
SHARE

PRINT THIS DATA

[ ← Previous Day ]
WEATHER ALMANAC - JANUARY 18, 2013
[ Next Day → ]
[ °C ]   °F
Weather ElementAverageHighLow
Temperature39.7 °F55.9 °F (3:54 pm)19 °F (2:54 am)
Dewpoint20.4 °F26.1 °F (11:54 pm)15.1 °F (2:54 am)
Humidity51.7 %88 % (4:54 am)25 % (3:54 pm)
Barometer30.33 in30.53 in (1:54 am)30.14 in (9:54 pm)
Wind Speed8.1 mph13.8 mph (1:54 pm)
Wind Gust23 mph (3:54 pm)
Weather ElementAverage
Visibility10 mi
Wind DirectionSSE (163.5 °)

Weather ElementTotal
Precipitation---
Heating Degree Days27.6 (Base 65)
Averaged from 23 records on January 18, 2013
WEATHER CONDITIONS BREAKOUT
WIND DIRECTION BREAKOUT
WEATHER BY HOUR - JANUARY 18, 2013
[ °C ]   °F
Local TimeTemperatureDewpointHumidityBarometerVisibilityWind DirectionWind SpeedGust SpeedPrecipitationEventsConditions
1:54 AM21.0 °F17.1 °F85 %30.53 in10.0 miWSW (250°)3.5 mphClear
2:54 AM19.0 °F15.1 °F85 %30.52 in10.0 miCalmClear
3:54 AM19.9 °F16.0 °F85 %30.51 in10.0 miCalmClear
4:54 AM19.0 °F16.0 °F88 %30.51 in10.0 miCalmClear
5:54 AM19.0 °F15.1 °F85 %30.50 in10.0 miCalmClear
6:54 AM19.0 °F15.1 °F85 %30.50 in10.0 miCalmClear
7:54 AM28.0 °F19.0 °F69 %30.49 in10.0 miSW (220°)8.1 mphClear
8:54 AM34.0 °F21.0 °F59 %30.48 in10.0 miSSW (210°)4.6 mphClear
9:54 AM39.0 °F21.0 °F49 %30.45 in10.0 miSSW (210°)9.2 mph19.6 mphClear
10:54 AM43.0 °F23.0 °F45 %30.42 in10.0 miSSW (210°)12.7 mph19.6 mphClear
11:54 AM48.0 °F24.1 °F39 %30.36 in10.0 miSW (220°)12.7 mph17.3 mphClear
12:54 PM51.1 °F21.9 °F32 %30.31 in10.0 miSSW (200°)11.5 mph19.6 mphClear
1:54 PM54.0 °F21.0 °F28 %30.27 in10.0 miSSW (200°)13.8 mphClear
2:54 PM55.0 °F21.0 °F27 %30.23 in10.0 miSSW (200°)13.8 mph20.7 mphClear
3:54 PM55.9 °F19.9 °F25 %30.20 in10.0 miSouth (190°)12.7 mph23.0 mphClear
4:54 PM54.0 °F19.9 °F26 %30.19 in10.0 miSSW (200°)9.2 mphClear
5:54 PM52.0 °F19.9 °F28 %30.19 in10.0 miSouth (190°)10.4 mphClear
6:54 PM51.1 °F21.0 °F31 %30.19 in10.0 miSSW (200°)13.8 mph21.9 mphClear
7:54 PM48.9 °F23.0 °F36 %30.17 in10.0 miSSW (210°)9.2 mph18.4 mphClear
8:54 PM46.0 °F24.1 °F42 %30.15 in10.0 miSSW (200°)11.5 mphClear
9:54 PM46.0 °F25.0 °F44 %30.14 in10.0 miSSW (210°)8.1 mph18.4 mphClear
10:54 PM45.0 °F25.0 °F46 %30.15 in10.0 miSW (220°)12.7 mphClear
11:54 PM44.1 °F26.1 °F49 %30.14 in10.0 miSW (220°)9.2 mph17.3 mphClear
Hourly data recorded from KSUS, located miles away from Hazelwood, Missouri







STORIES FROM OUR PARTNERS